Time,TemperatureF,DewpointF,PressureIn,WindDirection,WindDirectionDegrees,WindSpeedMPH,WindSpeedGustMPH,Humidity,HourlyPrecipIn,Conditions,Clouds,dailyrainin,SoftwareType,DateUTC
2013-11-09 00:00:00,36.8,29.6,30.20,West,264,0.0,7.0,75,0.00,,,0.00,Wunderground v.1.15,2013-11-09 05:00:00,
2013-11-09 00:05:00,36.8,29.6,30.20,West,264,0.0,7.0,75,0.00,,,0.00,Wunderground v.1.15,2013-11-09 05:05:00,
2013-11-09 00:10:00,36.8,29.6,30.20,West,264,0.0,7.0,75,0.00,,,0.00,Wunderground v.1.15,2013-11-09 05:10:00,
2013-11-09 00:15:00,36.8,29.6,30.20,West,264,0.0,7.0,75,0.00,,,0.00,Wunderground v.1.15,2013-11-09 05:15:00,
2013-11-09 00:20:00,36.8,29.6,30.20,West,264,0.0,7.0,75,0.00,,,0.00,Wunderground v.1.15,2013-11-09 05:20:00,
2013-11-09 00:25:00,36.9,29.4,30.20,West,264,0.0,7.0,74,0.00,,,0.00,Wunderground v.1.15,2013-11-09 05:25:00,
2013-11-09 00:30:00,36.9,29.4,30.20,West,264,0.0,7.0,74,0.00,,,0.00,Wunderground v.1.15,2013-11-09 05:30:00,
2013-11-09 09:20:00,36.0,31.0,30.17,South,170,0.0,0.0,82,0.00,,,0.00,Wunderground v.1.15,2013-11-09 14:20:00,
2013-11-09 09:30:00,35.9,31.2,30.17,South,169,1.0,1.0,83,0.00,,,0.01,Wunderground v.1.15,2013-11-09 14:30:00,
2013-11-09 09:39:00,35.1,30.8,30.17,South,177,0.0,0.0,84,0.05,,,0.02,Wunderground v.1.15,2013-11-09 14:39:00,
2013-11-09 09:45:00,35.1,31.0,30.16,South,176,0.0,0.0,85,0.05,,,0.02,Wunderground v.1.15,2013-11-09 14:45:00,
2013-11-09 09:50:00,35.1,31.0,30.16,South,176,0.0,0.0,85,0.04,,,0.02,Wunderground v.1.15,2013-11-09 14:50:00,
2013-11-09 09:55:00,35.1,31.3,30.15,South,176,0.0,0.0,86,0.00,,,0.02,Wunderground v.1.15,2013-11-09 14:55:00,
2013-11-09 10:00:00,35.4,31.9,30.14,South,175,0.0,1.0,87,0.00,,,0.02,Wunderground v.1.15,2013-11-09 15:00:00,
2013-11-09 10:05:00,35.6,32.1,30.13,South,175,0.0,6.0,87,0.00,,,0.02,Wunderground v.1.15,2013-11-09 15:05:00,
2013-11-09 10:10:00,35.8,32.3,30.13,South,173,1.0,1.0,87,0.00,,,0.02,Wunderground v.1.15,2013-11-09 15:10:00,
2013-11-09 10:15:00,36.1,32.9,30.12,South,171,1.0,6.0,88,0.00,,,0.02,Wunderground v.1.15,2013-11-09 15:15:00,
2013-11-09 10:25:00,36.6,33.4,30.12,South,169,1.0,6.0,88,0.00,,,0.02,Wunderground v.1.15,2013-11-09 15:25:00,
2013-11-09 10:30:00,36.8,33.6,30.11,SSE,167,1.0,1.0,88,0.00,,,0.02,Wunderground v.1.15,2013-11-09 15:30:00,
2013-11-09 10:35:00,37.2,34.0,30.10,SSE,163,1.0,6.0,88,0.00,,,0.02,Wunderground v.1.15,2013-11-09 15:35:00,
2013-11-09 10:40:00,37.5,34.0,30.09,SSE,167,1.0,6.0,87,0.00,,,0.02,Wunderground v.1.15,2013-11-09 15:40:00,
2013-11-09 10:45:00,37.8,34.3,30.08,SSE,167,1.0,6.0,87,0.00,,,0.02,Wunderground v.1.15,2013-11-09 15:45:00,
2013-11-09 10:50:00,38.1,34.3,30.07,SSE,154,1.0,6.0,86,0.00,,,0.02,Wunderground v.1.15,2013-11-09 15:50:00,
2013-11-09 10:55:00,38.4,34.6,30.07,ESE,113,1.0,6.0,86,0.00,,,0.02,Wunderground v.1.15,2013-11-09 15:55:00,
2013-11-09 11:05:00,39.3,34.6,30.07,SE,145,1.0,4.0,83,0.00,,,0.02,Wunderground v.1.15,2013-11-09 16:05:00,
2013-11-09 11:10:00,39.8,34.4,30.06,South,182,1.0,6.0,81,0.00,,,0.02,Wunderground v.1.15,2013-11-09 16:10:00,
2013-11-09 11:15:00,40.2,33.6,30.06,SSW,194,2.0,6.0,77,0.00,,,0.02,Wunderground v.1.15,2013-11-09 16:15:00,
2013-11-09 11:25:00,41.3,33.6,30.05,SE,142,1.0,6.0,74,0.00,,,0.02,Wunderground v.1.15,2013-11-09 16:25:00,
2013-11-09 11:30:00,41.6,33.2,30.05,SSE,160,2.0,6.0,72,0.00,,,0.02,Wunderground v.1.15,2013-11-09 16:30:00,
2013-11-09 11:35:00,42.0,33.6,30.05,South,169,2.0,6.0,72,0.00,,,0.02,Wunderground v.1.15,2013-11-09 16:35:00,
2013-11-09 11:45:00,42.4,32.6,30.04,SSE,161,3.0,12.0,68,0.00,,,0.02,Wunderground v.1.15,2013-11-09 16:45:00,
2013-11-09 11:50:00,42.7,32.9,30.03,SSE,163,3.0,3.0,68,0.00,,,0.02,Wunderground v.1.15,2013-11-09 16:50:00,
2013-11-09 11:55:00,42.8,32.6,30.02,SSE,162,3.0,6.0,67,0.00,,,0.02,Wunderground v.1.15,2013-11-09 16:55:00,
2013-11-09 12:00:00,43.1,32.9,30.01,SSE,165,3.0,6.0,67,0.00,,,0.02,Wunderground v.1.15,2013-11-09 17:00:00,
2013-11-09 12:05:00,43.0,32.0,30.01,SSE,157,4.0,6.0,65,0.00,,,0.02,Wunderground v.1.15,2013-11-09 17:05:00,
2013-11-09 12:10:00,42.9,32.3,30.00,South,173,4.0,6.0,66,0.00,,,0.02,Wunderground v.1.15,2013-11-09 17:10:00,
2013-11-09 12:15:00,42.9,31.9,30.00,SSE,159,3.0,6.0,65,0.00,,,0.02,Wunderground v.1.15,2013-11-09 17:15:00,
2013-11-09 12:25:00,42.9,31.9,30.00,South,176,3.0,6.0,65,0.00,,,0.02,Wunderground v.1.15,2013-11-09 17:25:00,
2013-11-09 12:35:00,42.9,31.9,29.98,SSE,161,3.0,6.0,65,0.00,,,0.02,Wunderground v.1.15,2013-11-09 17:35:00,
2013-11-09 12:40:00,42.9,31.9,29.98,South,184,2.0,2.0,65,0.00,,,0.02,Wunderground v.1.15,2013-11-09 17:40:00,